Lynchburg, VA

1:42 PM EST on November 15, 2019 (GMT -0500)
Lynchburg Regional-Glenn

Weather History for KLYH - September, 2019

Change the Weather History Date:

Thursday, September 26, 2019

  Actual Average Record
Temperature  
Mean Temperature 75 °F 63 °F  
Max Temperature 91 °F 75 °F 98 °F (1933)
Min Temperature 58 °F 52 °F 35 °F (2001)
Degree Days  
Heating Degree Days 0 4  
Month to date heating degree days 5 37  
Since 1 July heating degree days 5 40  
Cooling Degree Days 10 2  
Month to date cooling degree days 252 111  
Year to date cooling degree days 1467 1009  
Growing Degree Days 24 (Base 50)    
Moisture  
Dew Point 60 °F    
Average Humidity 69    
Maximum Humidity 100    
Minimum Humidity 38    
Precipitation  
Precipitation 0.00 in 0.12 in 2.03 in (1956)
Month to date precipitation 0.06 3.38  
Year to date precipitation 27.64 31.31  
Snow  
Snow 0.00 in - - ()
Month to date snowfall 0.0  
Since 1 July snowfall 0.0  
Since 1 September snowfall 0.0  
Snow Depth 0.00 in    
Sea Level Pressure  
Sea Level Pressure 29.86 in    
Wind  
Wind Speed 5 mph (SW)    
Max Wind Speed 16 mph    
Max Gust Speed 20 mph    
Visibility 10 miles    
Events      
T = Trace of Precipitation, MM = Missing Value Source: NWS Daily Summary

Daily Weather History Graph

Daily Weather History Graph

Search for Another Location

Airport or City:

Astronomy

Sep. 26, 2019 Rise Set
Actual Time 7:07 AM EDT 7:07 PM EDT
Civil Twilight 6:41 AM EDT 7:33 PM EDT
Nautical Twilight 6:11 AM EDT 8:04 PM EDT
Astronomical Twilight 5:40 AM EDT 8:34 PM EDT
Moon 4:17 AM EDT (9/26) 6:15 PM EDT (9/26)
Length of Visible Light 12h 52m
Length of Day
12h 00m
Waning Crescent, 7% of the Moon is Illuminated
Sep 26
Waning Crescent
Sep 28
New
Oct 5
First Quarter
Oct 13
Full
Oct 21
Last Quarter

Hourly Weather History & Observations

Time (EDT) Temp. Heat Index Dew Point Humidity Pressure Visibility Wind Dir Wind Speed Gust Speed Precip Events Conditions
12:54 AM 62.1 °F - 59.0 °F 90% 29.88 in 10.0 mi Calm Calm - N/A   Clear
1:54 AM 62.1 °F - 59.0 °F 90% 29.87 in 10.0 mi Calm Calm - N/A   Clear
2:54 AM 64.0 °F - 60.1 °F 87% 29.85 in 10.0 mi WSW 4.6 mph - N/A   Clear
3:54 AM 62.1 °F - 60.1 °F 93% 29.84 in 10.0 mi South 4.6 mph - N/A   Clear
4:54 AM 60.1 °F - 57.9 °F 93% 29.84 in 10.0 mi SW 3.5 mph - N/A   Clear
5:54 AM 61.0 °F - 59.0 °F 93% 29.83 in 10.0 mi SSW 4.6 mph - N/A   Clear
6:54 AM 57.9 °F - 57.0 °F 97% 29.85 in 9.0 mi SSW 3.5 mph - N/A   Clear
7:54 AM 63.0 °F - 61.0 °F 93% 29.86 in 10.0 mi South 5.8 mph - N/A   Clear
8:54 AM 66.9 °F - 62.1 °F 84% 29.87 in 10.0 mi South 3.5 mph - N/A   Overcast
9:54 AM 73.9 °F - 60.1 °F 62% 29.87 in 10.0 mi South 4.6 mph - N/A   Mostly Cloudy
10:54 AM 82.9 °F 82.1 °F 55.9 °F 39% 29.86 in 10.0 mi West 6.9 mph - N/A   Mostly Cloudy
11:54 AM 86.0 °F 85.4 °F 59.0 °F 40% 29.86 in 10.0 mi SW 9.2 mph - N/A   Clear
12:54 PM 87.1 °F 86.5 °F 59.0 °F 39% 29.83 in 10.0 mi SW 9.2 mph 17.3 mph N/A   Partly Cloudy
1:54 PM 88.0 °F 87.9 °F 61.0 °F 40% 29.82 in 10.0 mi SSW 13.8 mph 18.4 mph N/A   Clear
2:54 PM 90.0 °F 90.0 °F 61.0 °F 38% 29.79 in 10.0 mi SSW 11.5 mph - N/A   Clear
3:54 PM 88.0 °F 87.9 °F 61.0 °F 40% 29.78 in 10.0 mi WSW 6.9 mph - N/A   Partly Cloudy
4:54 PM 86.0 °F 86.3 °F 62.1 °F 44% 29.81 in 10.0 mi North 10.4 mph 17.3 mph N/A   Mostly Cloudy
5:54 PM 84.0 °F 85.4 °F 64.0 °F 51% 29.83 in 10.0 mi North 3.5 mph - N/A   Partly Cloudy
6:54 PM 82.9 °F 83.7 °F 62.1 °F 49% 29.85 in 10.0 mi Calm Calm - N/A   Overcast
7:54 PM 73.9 °F - 63.0 °F 68% 29.88 in 10.0 mi Calm Calm - N/A   Partly Cloudy
8:54 PM 75.0 °F - 62.1 °F 64% 29.90 in 10.0 mi North 3.5 mph - N/A   Clear
9:54 PM 77.0 °F - 59.0 °F 54% 29.92 in 10.0 mi North 3.5 mph - N/A   Clear
10:54 PM 73.0 °F - 61.0 °F 66% 29.94 in 10.0 mi Calm Calm - N/A   Clear
11:54 PM 69.1 °F - 59.0 °F 70% 29.95 in 10.0 mi Calm Calm - N/A   Clear